sat.trackr.live / text

‹ back to catalog

STARLINK-36393

NORAD 67859 · 2026-034K

PAYLOAD ACTIVE UNKNOWN

§ Identity

Operator
Country
US
Launch date
2026-02-20
Launch site
AFETR
Launch vehicle
Mass (kg)
RCS (m²)

Purposes: comms

External: N2YO · Heavens-Above · Gunter

§ Orbital elements

Epoch: 2026-05-25T03:58:38.460288Z

Period
94.01 min
Inclination
53.1596°
Eccentricity
0.0002153
Mean motion
15.31722223 rev/d
Perigee alt
469.2 km
Apogee alt
472.1 km
Semi-major
6,848.8 km
B*
5.9968e-4
RAAN
208.3693°
Arg perigee
85.3416°
Mean anomaly
274.7832°
Rev number
1,575

§ Raw data

STARLINK-363931 67859U 26034K   26145.16572292  .00018302  00000+0  59968-3 0  99952 67859  53.1596 208.3693 0002153  85.3416 274.7832 15.31722223 15754

JSON: /api/v1/satellites/67859 · /tle

For live sub-satellite position, see the globe view (requires WebGL).

§ Visibility from observer

Set your observer location to see the next 7 days of passes ≥ 10°. The values pass through the URL so the page stays shareable.

No JS? Fill the form by hand. The geolocation button needs JavaScript.